TERRA SAR X

Satellite information

Favourite Embed

Satellite Type and Status

PAYLOADIN ORBIT

Key statistics

Satellite TERRA SAR X at a glance.

Uptime

6756

Days in orbit

Revolutions

≈ 15.2

Per day

Orbit

SSO

Sun Synchronous Orbit

Inclination

97.4

Latest

Satellite identification and parameters

Extended collection of information and parameters for TERRA SAR X.

Object identification

Identified? True

Debris? False

Object name: TERRA SAR X

International designator: 2007-026A

Object number (NORAD): 31698

Object ID (CCSDS): 31698

Country: GERMANY (GER)

Current information (Y/N): Y

RCS size: LARGE

Orbital parameters

Period: 94.79 minutes

Inclination: 97.4455 deg

SMA: 6886.529 km

Apoapsis: 509.695 km

Periapsis: 507.093 km

RAAN: 350.8663 deg

Eccentricy: 0.00018891

Argument of periapsis: 92.9175 deg

Mean anomaly: 267.2276 deg

Mean motion: 15.19155336 rev/day

Mean motion (dot): 0.00001895 rev/day2

B* drag term: 0.000093381918 1/REarth

Two-line elements (TLE)

Creation date: Dec. 11, 2025, 7:14 p.m.

Reference frame: TEME

Reference center: EARTH

Epoch: Dec. 11, 2025, 11:12 a.m. UTC

TLE line 0: 0 TERRA SAR X

TLE line 1: 1 31698U 07026A 25345.46717034 .00001895 00000-0 93382-4 0 9995

TLE line 2: 2 31698 97.4455 350.8663 0001889 92.9175 267.2276 15.19155336 24729

Live tracking on map

Real-time ground track for satellite TERRA SAR X.

In-orbit conjunctions

There are no conjunctions computed for TERRA SAR X, at the moment. Check back to stay up to date, as we update our databases every day.

Go to all conjunctions

Associated space launch

German Earth observation satellite

TERRA SAR X was lifted into orbit during the mission ‘Dnepr | TerraSAR-X’, on board a Dnepr space rocket.

The launch took place on June 15, 2007, 2:14 a.m. from 109/95.

For more information about the launch, click the button.

Launch to space Dnepr | TerraSAR-X
Dnepr | TerraSAR-X

Agency: N/A

Status: Launch Successful

Launch date: June 15, 2007, 2:14 a.m. UTC

Rocket: Dnepr

Launch pad: 109/95

Location: Baikonur Cosmodrome, Republic of Kazakhstan

...

Latest news about this satellite

There are no fresh news available about this satellite. Check back as we update our databases every day.


Newsletter sign-up

Weekly statistics, charts and insights to help you stay on top of the space industry.